カタログに戻る

CZ-2C DEB

運用中SSO
NORAD 67586·DEBRIS·🇨🇳 China

打ち上げ Jan 15, 2026 から Jiuquan Satellite Launch Center

Loading…

次のパス (今後24時間)

TLE

最新Source: Space-Track

元期: Sep 14, 2026, 14:27 UTC

1 67586U 26009C   26257.60265113  .00092352  00000-0  22753-2 0  9997
2 67586  97.1984 322.9319 0060995  89.3484 271.4750 15.38291701 36895

AllMySatでCZ-2C DEBをリアルタイム追跡

Download on the App Store